Aérodrome :
LOGIN :

S'inscrire | Disclaimer

   EN    FR    IT 

 










Légende :    VFR   VFR Marginal   IFR   IFR Intensif   IFR Très Intensif
Visi : 
Plafond : 
>= 8 km
>= 3000ft
5 à 8 km
1000 à 3000 ft
1500m à 5 km
500 à 1000 ft
800 à 1500m
200 à 500 ft
< 800m
< 200 ft
Symboles :   Orages  Brouillard  Fortes neiges  Fortes précipitations  Vent > 20 kt
SIGMETs :   Divers  Orages  Givrage  Turbulence  Onde Orograph.  Cendres Volcan.







- Altitude de l'aérodrome : 529 ft
- Code IATA : CHR
- Voir les cartes d'approche


LFLX - Chateauroux

DERNIER METAR :
  • 180730Z AUTO 09004KT CAVOK 01/M02 Q1019 NOSIG

METARs EXPIRÉS :
  • 180700Z AUTO 08003KT CAVOK M01/M03 Q1019 NOSIG
  • 180630Z AUTO 08004KT CAVOK M01/M03 Q1019 NOSIG
  • 180600Z AUTO 07004KT CAVOK M01/M03 Q1019 NOSIG
  • 180530Z AUTO 07003KT CAVOK M01/M03 Q1019 NOSIG
  • 180500Z AUTO 06003KT CAVOK M01/M03 Q1019 NOSIG

TAF TAF LFLX
Valide du 18 à 06h jusqu'au 19 à 12h UTC


180500Z 1806/1912 VRB03KT CAVOK
BECMG 1810/1813 21010KT
TEMPO 1902/1910 VRB03KT 2000 -RA BKN004
PROB30
TEMPO 1905/1910 0600 BCFG
BECMG 1909/1912 28005KT
Pas de NOTAMs connus pour ce terrain.



MET'MAP, la Météo Aéronautique d'un coup d'oeil ! - Copyright ORBIFLY Décembre 2007 - Disclaimer

ORBIFLY MET'MAP TEAM :

Programmation & Développement : Alexandra Zaïnal
Conception & Développement : Baudouin d'Aumeries
Co-Programmation & Développement : Marc-Olivier Méhu
Soutien technique & logistique : Manuel Goepfert

Contact : metmap@orbifly.com




SOURCES & CREDITS :

   NOAA